�N����,����,�~����,�C��,���x,�C��,����,���ϕ���,�ő�u�ԕ���,�ő厞����,���˗�,�I�_���x,�n�����x,�ő啗���N��,DTYPE
"18/01/20","00:10",0.0,2.3,88.8,1011.6,291.5,1.8,3.6,322.4,0.00,0.7,6.2,"00:06:00",1
"18/01/20","00:20",0.0,2.9,88.8,1011.9,307.5,3.5,5.2,313.8,0.00,1.3,6.0,"00:14:40",1
"18/01/20","00:30",0.0,3.6,85.6,1012.1,326.9,4.1,5.6,318.8,0.00,1.5,6.0,"00:20:32",1
"18/01/20","00:40",0.0,3.8,84.0,1011.9,327.4,3.6,5.2,321.2,0.00,1.4,6.0,"00:33:12",1
"18/01/20","00:50",0.0,3.9,84.5,1011.9,326.8,3.5,5.7,325.4,0.00,1.6,6.0,"00:47:44",1
"18/01/20","01:00",0.0,4.1,84.1,1012.1,322.0,2.8,4.5,333.9,0.00,1.7,5.9,"00:50:16",1
"18/01/20","01:10",0.0,4.1,83.7,1012.3,316.8,3.2,5.7,333.8,0.00,1.6,5.9,"01:06:24",1
"18/01/20","01:20",0.0,4.2,83.4,1012.6,317.9,3.7,6.4,331.6,0.00,1.7,5.9,"01:15:36",1
"18/01/20","01:30",0.0,4.2,83.3,1012.3,320.0,2.8,4.2,315.1,0.00,1.7,5.8,"01:22:16",1
"18/01/20","01:40",0.0,4.2,83.3,1012.3,323.2,2.5,4.2,331.0,0.00,1.7,6.0,"01:39:44",1
"18/01/20","01:50",0.0,4.2,83.1,1012.6,327.5,2.5,4.8,317.2,0.00,1.6,6.0,"01:47:20",1
"18/01/20","02:00",0.0,4.2,83.4,1012.8,315.4,3.0,4.4,335.3,0.00,1.7,5.9,"01:56:48",1
"18/01/20","02:10",0.0,4.2,83.4,1012.3,301.9,2.2,3.4,330.3,0.00,1.7,6.1,"02:01:36",1
"18/01/20","02:20",0.0,4.1,84.4,1012.6,266.0,1.6,2.2,247.8,0.00,1.7,5.8,"02:12:48",1
"18/01/20","02:30",0.0,3.9,85.2,1012.8,280.3,1.6,2.2,317.0,0.00,1.7,5.9,"02:26:08",1
"18/01/20","02:40",0.0,3.8,86.6,1012.3,290.9,1.3,1.9,309.9,0.00,1.8,6.1,"02:34:24",1
"18/01/20","02:50",0.0,3.7,87.6,1012.3,298.5,1.5,2.0,318.8,0.00,1.9,5.9,"02:43:04",1
"18/01/20","03:00",0.0,3.6,87.9,1012.6,293.5,1.5,1.8,310.1,0.00,1.8,5.8,"02:54:40",1
"18/01/20","03:10",0.0,3.6,88.3,1012.6,299.0,1.7,2.8,326.5,0.00,1.9,5.9,"03:09:04",1
"18/01/20","03:20",0.0,3.6,87.7,1012.3,301.9,2.1,2.9,315.5,0.00,1.8,6.1,"03:11:44",1
"18/01/20","03:30",0.0,3.6,87.6,1012.1,317.4,2.1,2.9,327.2,0.00,1.8,5.9,"03:28:00",1
"18/01/20","03:40",0.0,3.3,87.5,1011.9,297.2,1.7,2.7,316.6,0.00,1.5,5.9,"03:31:04",1
"18/01/20","03:50",0.0,2.9,88.1,1011.9,302.5,1.2,2.1,313.7,0.00,1.2,6.1,"03:49:36",1
"18/01/20","04:00",0.0,2.4,89.0,1011.4,304.9,2.1,2.7,324.1,0.00,0.8,5.8,"03:50:08",1
"18/01/20","04:10",0.0,2.0,90.3,1011.4,301.7,2.2,2.6,313.2,0.00,0.6,5.9,"04:01:52",1
"18/01/20","04:20",0.0,1.8,91.7,1011.4,308.2,2.0,2.5,322.6,0.00,0.6,5.6,"04:15:44",1
"18/01/20","04:30",0.0,1.5,92.9,1011.6,293.6,1.8,2.4,308.6,0.00,0.5,5.9,"04:20:16",1
"18/01/20","04:40",0.0,1.4,93.5,1011.2,292.3,1.8,2.5,316.5,0.00,0.5,5.8,"04:36:08",1
"18/01/20","04:50",0.0,1.2,93.8,1011.2,294.1,1.8,2.6,312.2,0.00,0.4,5.8,"04:48:32",1
"18/01/20","05:00",0.0,1.4,95.1,1011.4,302.4,2.2,3.3,312.0,0.00,0.7,5.7,"04:59:44",1
"18/01/20","05:10",0.0,1.4,94.6,1011.4,293.4,1.6,2.2,300.2,0.00,0.7,5.6,"05:00:16",1
"18/01/20","05:20",0.0,1.2,94.6,1011.4,283.5,0.7,1.6,292.9,0.00,0.5,5.7,"05:11:28",1
"18/01/20","05:30",0.0,1.0,94.9,1011.4,303.3,1.6,2.2,309.7,0.00,0.3,5.7,"05:24:48",1
"18/01/20","05:40",0.0,0.9,95.3,1011.4,307.6,1.3,1.9,316.2,0.00,0.3,5.5,"05:32:24",1
"18/01/20","05:50",0.0,0.9,95.7,1011.4,299.7,1.5,2.4,310.6,0.00,0.3,5.6,"05:40:48",1
"18/01/20","06:00",0.0,0.7,96.0,1011.6,291.1,1.2,1.4,310.4,0.00,0.2,5.4,"05:55:12",1
"18/01/20","06:10",0.0,0.7,96.3,1012.1,321.4,1.8,2.4,330.4,0.00,0.2,5.3,"06:09:34",1
"18/01/20","06:20",0.0,0.5,96.4,1011.9,322.9,2.0,2.1,316.0,0.00,0.0,5.1,"06:13:04",1
"18/01/20","06:30",0.0,0.2,96.7,1011.6,303.7,1.1,1.4,307.3,0.00,-0.2,5.4,"06:20:08",1
"18/01/20","06:40",0.0,0.2,97.3,1011.9,304.2,1.3,1.7,315.6,0.00,-0.1,5.3,"06:32:40",1
"18/01/20","06:50",0.0,0.4,97.9,1011.6,307.4,1.5,1.9,334.9,0.00,0.1,5.3,"06:49:28",1
"18/01/20","07:00",0.0,0.3,97.4,1011.4,310.5,1.6,2.0,314.1,0.00,0.0,5.1,"06:51:12",1
"18/01/20","07:10",0.0,0.1,97.8,1011.6,309.7,1.2,1.8,317.3,0.00,-0.2,5.1,"07:00:32",1
"18/01/20","07:20",0.0,0.0,97.7,1011.4,314.2,1.0,1.3,305.8,0.00,-0.3,4.9,"07:16:16",1
"18/01/20","07:30",0.0,-0.2,98.1,1011.4,312.4,0.6,1.8,324.8,0.00,-0.4,4.9,"07:29:36",1
"18/01/20","07:40",0.0,0.2,98.0,1011.4,327.4,1.5,1.7,320.9,0.00,0.0,5.0,"07:36:24",1
"18/01/20","07:50",0.0,0.4,97.7,1011.4,274.7,1.0,1.1,259.9,0.00,0.1,4.9,"07:43:20",1
"18/01/20","08:00",0.0,0.7,99.0,1011.6,279.9,1.2,1.8,282.4,0.01,0.6,4.9,"07:56:48",1
"18/01/20","08:10",0.0,1.5,96.5,1011.4,294.4,1.5,2.0,302.7,0.02,1.0,4.9,"08:01:52",1
"18/01/20","08:20",0.0,1.4,97.4,1012.1,290.4,1.3,1.8,288.6,0.03,1.1,5.0,"08:16:08",1
"18/01/20","08:30",0.0,2.3,96.2,1011.9,295.8,1.1,2.1,316.3,0.05,1.8,5.0,"08:26:48",1
"18/01/20","08:40",0.0,2.4,93.8,1012.3,299.9,1.6,2.2,315.3,0.07,1.5,5.0,"08:34:16",1
"18/01/20","08:50",0.0,3.3,90.9,1012.6,313.3,1.3,2.4,318.7,0.09,2.0,4.8,"08:49:12",1
"18/01/20","09:00",0.0,4.0,88.6,1012.6,314.1,1.2,2.0,315.9,0.11,2.3,5.2,"08:50:16",1
"18/01/20","09:10",0.0,4.7,85.9,1013.0,312.3,1.1,1.4,303.7,0.12,2.6,5.3,"09:06:56",1
"18/01/20","09:20",0.0,5.2,84.0,1013.5,269.3,1.0,1.6,285.8,0.15,2.8,5.5,"09:10:34",1
"18/01/20","09:30",0.0,5.8,82.3,1013.8,243.8,0.7,1.7,251.7,0.18,3.1,5.7,"09:22:36",1
"18/01/20","09:40",0.0,5.8,80.6,1014.2,212.2,0.8,1.7,217.4,0.21,2.8,5.6,"09:31:44",1
"18/01/20","09:50",0.0,6.3,78.4,1014.2,240.7,1.0,2.2,243.9,0.22,2.9,5.8,"09:43:36",1
"18/01/20","10:00",0.0,6.6,77.7,1014.5,228.7,0.8,2.4,245.5,0.24,3.0,5.8,"09:55:52",1
"18/01/20","10:10",0.0,6.7,75.4,1014.0,146.7,0.8,2.0,113.7,0.25,2.7,6.3,"10:08:08",1
"18/01/20","10:20",0.0,7.0,74.6,1014.0,186.1,1.0,2.2,152.2,0.27,2.8,6.2,"10:19:52",1
"18/01/20","10:30",0.0,7.4,74.2,1014.0,213.9,0.8,1.8,234.8,0.26,3.2,6.3,"10:21:04",1
"18/01/20","10:40",0.0,7.4,73.0,1014.0,232.8,1.1,2.2,233.5,0.23,2.9,6.6,"10:37:28",1
"18/01/20","10:50",0.0,7.8,71.8,1014.0,196.4,0.8,2.1,123.9,0.25,3.1,7.0,"10:41:52",1
"18/01/20","11:00",0.0,8.4,73.2,1013.8,149.1,1.1,2.5,115.7,0.34,3.9,7.1,"10:51:44",1
"18/01/20","11:10",0.0,8.3,69.3,1013.3,205.4,0.8,2.1,161.8,0.32,3.1,7.2,"11:08:56",1
"18/01/20","11:20",0.0,8.1,71.4,1013.3,208.9,1.2,2.8,244.6,0.25,3.3,7.5,"11:18:56",1
"18/01/20","11:30",0.0,8.3,71.4,1013.0,200.1,0.8,2.2,162.3,0.18,3.5,7.5,"11:25:20",1
"18/01/20","11:40",0.0,8.0,70.2,1013.0,213.2,0.8,1.6,234.1,0.21,2.9,7.5,"11:30:48",1
"18/01/20","11:50",0.0,8.5,70.3,1013.0,216.9,0.7,1.3,257.4,0.23,3.4,7.5,"11:49:36",1
"18/01/20","12:00",0.0,8.6,69.0,1013.0,317.0,1.1,2.5,329.3,0.17,3.3,7.9,"11:55:04",1
"18/01/20","12:10",0.0,8.8,69.0,1012.8,293.8,1.3,2.2,323.6,0.13,3.5,8.0,"12:02:56",1
"18/01/20","12:20",0.0,8.9,68.8,1012.8,310.7,0.7,1.3,4.6,0.11,3.5,8.0,"12:14:48",1
"18/01/20","12:30",0.0,9.8,66.5,1012.6,272.5,1.0,1.9,244.4,0.12,3.9,8.0,"12:27:04",1
"18/01/20","12:40",0.0,10.2,65.5,1012.8,309.9,1.5,3.2,312.0,0.12,4.1,8.2,"12:35:44",1
"18/01/20","12:50",0.0,10.5,65.4,1012.6,279.1,2.2,3.9,302.7,0.14,4.3,8.2,"12:41:20",1
"18/01/20","13:00",0.0,10.9,64.8,1013.3,287.4,2.6,5.1,335.2,0.25,4.6,8.2,"12:58:24",1
"18/01/20","13:10",0.0,10.1,67.4,1012.8,290.7,2.8,5.7,325.7,0.19,4.4,8.3,"13:08:24",1
"18/01/20","13:20",0.0,10.1,68.7,1012.6,285.8,3.2,5.7,301.4,0.14,4.7,8.2,"13:10:08",1
"18/01/20","13:30",0.0,10.1,70.2,1012.6,279.2,2.8,4.1,265.8,0.17,5.0,8.3,"13:27:04",1
"18/01/20","13:40",0.0,10.2,69.3,1012.8,274.1,2.5,4.4,291.8,0.18,4.9,8.4,"13:36:32",1
"18/01/20","13:50",0.0,10.5,68.0,1012.8,273.8,2.2,4.5,298.3,0.24,4.9,8.7,"13:46:24",1
"18/01/20","14:00",0.0,10.2,69.5,1012.8,273.8,2.2,3.5,307.4,0.11,4.9,8.7,"13:50:08",1
"18/01/20","14:10",0.0,10.4,68.0,1012.3,270.1,2.1,3.5,322.0,0.11,4.8,8.4,"14:03:12",1
"18/01/20","14:20",0.0,10.9,65.1,1012.6,273.7,1.8,3.2,258.1,0.09,4.6,8.6,"14:10:24",1
"18/01/20","14:30",0.0,10.9,65.1,1012.3,270.5,2.0,3.1,273.6,0.16,4.6,8.5,"14:20:08",1
"18/01/20","14:40",0.0,10.8,64.4,1012.6,289.2,2.3,5.2,323.7,0.10,4.4,8.5,"14:35:52",1
"18/01/20","14:50",0.0,11.3,63.3,1012.1,325.3,2.1,4.4,332.6,0.16,4.6,8.7,"14:48:56",1
"18/01/20","15:00",0.0,10.6,64.8,1012.8,332.9,2.7,6.4,336.6,0.13,4.3,8.7,"14:54:32",1
"18/01/20","15:10",0.0,10.4,64.2,1012.3,320.6,2.7,5.1,319.8,0.10,4.0,8.7,"15:06:08",1
"18/01/20","15:20",0.0,10.8,62.0,1012.3,319.0,3.2,7.5,325.8,0.08,3.9,8.7,"15:19:22",1
"18/01/20","15:30",0.0,10.8,64.5,1012.6,332.3,3.9,6.7,332.5,0.15,4.4,8.8,"15:24:58",1
"18/01/20","15:40",0.0,10.7,64.0,1012.3,334.1,2.3,5.5,331.2,0.16,4.2,8.8,"15:39:28",1
"18/01/20","15:50",0.0,10.5,64.1,1012.3,329.6,3.6,5.8,320.8,0.13,4.0,8.6,"15:47:52",1
"18/01/20","16:00",0.0,10.1,66.5,1012.3,328.7,3.7,6.5,314.5,0.08,4.2,8.6,"15:57:52",1
"18/01/20","16:10",0.0,9.9,65.9,1012.6,333.1,3.4,5.8,340.9,0.03,3.9,8.8,"16:09:12",1
"18/01/20","16:20",0.0,9.5,67.8,1012.3,334.1,3.1,5.5,338.9,0.02,3.9,8.7,"16:12:32",1
"18/01/20","16:30",0.0,9.5,68.5,1012.1,343.0,2.7,5.9,324.5,0.04,4.0,8.6,"16:23:52",1
"18/01/20","16:40",0.0,9.1,68.8,1012.3,328.5,2.8,6.5,334.4,0.02,3.7,8.7,"16:38:56",1
"18/01/20","16:50",0.0,8.7,70.3,1012.1,324.0,3.4,5.4,327.5,0.00,3.6,8.4,"16:43:52",1
"18/01/20","17:00",0.0,8.3,71.2,1012.1,328.7,3.6,6.6,317.1,0.00,3.4,8.3,"16:54:48",1
"18/01/20","17:10",0.0,8.1,72.8,1012.3,329.0,3.5,5.8,320.7,0.00,3.6,8.4,"17:07:12",1
"18/01/20","17:20",0.0,7.6,74.0,1012.1,328.9,2.6,4.0,341.5,0.00,3.3,8.1,"17:10:48",1
"18/01/20","17:30",0.0,7.6,75.3,1012.3,323.1,3.7,5.0,334.0,0.00,3.6,8.3,"17:23:12",1
"18/01/20","17:40",0.0,7.2,75.8,1012.8,319.6,3.2,4.7,325.8,0.00,3.3,8.1,"17:38:40",1
"18/01/20","17:50",0.0,6.9,77.0,1012.8,314.0,3.6,4.9,332.7,0.00,3.2,8.0,"17:42:40",1
"18/01/20","18:00",0.0,6.3,79.7,1013.3,295.5,2.3,2.8,303.7,0.00,3.1,7.7,"17:50:02",1
"18/01/20","18:10",0.0,6.4,80.0,1013.3,315.7,3.0,5.0,321.8,0.00,3.2,7.8,"18:01:28",1
"18/01/20","18:20",0.0,6.4,81.0,1013.3,313.5,3.4,4.4,318.2,0.00,3.4,7.9,"18:18:48",1
"18/01/20","18:30",0.0,6.5,81.7,1013.5,311.9,3.4,4.1,333.5,0.00,3.6,7.8,"18:28:00",1
"18/01/20","18:40",0.0,6.5,81.7,1013.5,318.0,3.1,4.3,336.6,0.00,3.6,7.6,"18:31:44",1
"18/01/20","18:50",0.0,6.5,81.8,1013.3,305.7,2.6,3.7,313.2,0.00,3.7,7.7,"18:40:48",1
"18/01/20","19:00",0.0,6.2,82.0,1014.0,303.0,2.6,4.1,324.5,0.00,3.4,7.8,"18:51:52",1
"18/01/20","19:10",0.0,6.0,82.5,1013.5,315.7,3.0,3.5,323.3,0.00,3.3,7.6,"19:06:24",1
"18/01/20","19:20",0.0,6.0,83.8,1013.8,312.9,3.0,4.2,320.9,0.00,3.5,7.5,"19:15:44",1
"18/01/20","19:30",0.0,5.9,83.8,1013.5,301.0,2.5,3.3,314.0,0.00,3.4,7.5,"19:22:16",1
"18/01/20","19:40",0.0,5.6,84.2,1013.3,311.5,2.7,4.0,319.4,0.00,3.2,7.4,"19:32:24",1
"18/01/20","19:50",0.0,5.2,85.6,1013.3,322.2,2.5,3.1,315.3,0.00,3.0,7.3,"19:43:46",1
"18/01/20","20:00",0.0,4.9,87.4,1013.5,317.7,2.1,3.1,322.4,0.00,3.0,7.3,"19:57:12",1
"18/01/20","20:10",0.0,4.7,88.4,1013.0,328.7,2.6,3.7,338.7,0.00,3.0,7.2,"20:08:40",1
"18/01/20","20:20",0.0,4.8,88.7,1013.3,325.8,2.7,4.2,328.2,0.00,3.1,7.0,"20:17:12",1
"18/01/20","20:30",0.0,4.7,88.7,1013.5,329.3,2.7,4.1,336.1,0.00,3.0,7.3,"20:26:48",1
"18/01/20","20:40",0.0,4.5,89.2,1013.3,326.8,2.5,3.7,321.3,0.00,2.9,7.0,"20:37:52",1
"18/01/20","20:50",0.0,4.5,89.0,1013.0,324.2,3.0,5.5,322.5,0.00,2.9,7.0,"20:44:32",1
"18/01/20","21:00",0.0,4.3,89.4,1012.8,322.5,2.3,3.5,329.6,0.00,2.8,7.1,"20:59:36",1
"18/01/20","21:10",0.0,4.1,89.6,1012.8,327.7,2.7,3.6,335.3,0.00,2.6,7.0,"21:04:56",1
"18/01/20","21:20",0.0,4.0,90.2,1013.0,324.7,2.3,3.7,330.1,0.00,2.6,6.7,"21:19:28",1
"18/01/20","21:30",0.0,4.0,90.6,1013.5,327.9,3.0,4.5,332.7,0.00,2.6,6.7,"21:25:12",1
"18/01/20","21:40",0.0,4.1,89.9,1013.0,311.3,3.1,4.8,325.0,0.00,2.6,6.6,"21:33:12",1
"18/01/20","21:50",0.0,4.0,90.1,1013.0,312.0,2.6,4.0,320.6,0.00,2.6,6.7,"21:49:52",1
"18/01/20","22:00",0.0,4.1,89.7,1013.3,323.9,2.6,4.4,339.0,0.00,2.6,6.7,"21:53:12",1
"18/01/20","22:10",0.0,4.1,89.6,1013.0,313.8,2.5,4.1,322.8,0.00,2.6,6.6,"22:02:08",1
"18/01/20","22:20",0.0,3.8,89.7,1013.0,291.5,1.3,3.9,315.9,0.00,2.3,6.3,"22:13:28",1
"18/01/20","22:30",0.0,3.7,90.7,1012.8,290.6,1.1,2.8,320.2,0.00,2.4,6.6,"22:27:52",1
"18/01/20","22:40",0.0,4.0,90.7,1013.0,328.5,2.1,4.0,337.3,0.00,2.7,6.2,"22:37:12",1
"18/01/20","22:50",0.0,3.8,89.9,1012.8,318.7,1.8,3.5,325.3,0.00,2.3,6.4,"22:40:48",1
"18/01/20","23:00",0.0,3.5,90.4,1013.0,309.1,1.7,2.6,329.2,0.00,2.1,6.4,"22:51:36",1
"18/01/20","23:10",0.0,3.7,91.1,1012.8,305.0,2.7,4.3,308.0,0.00,2.4,6.5,"23:04:16",1
"18/01/20","23:20",0.0,3.7,90.6,1012.8,298.3,2.2,3.6,316.1,0.00,2.3,6.5,"23:10:40",1
"18/01/20","23:30",0.0,3.5,91.4,1013.0,302.2,1.8,3.1,308.3,0.00,2.3,6.3,"23:22:32",1
"18/01/20","23:40",0.0,3.7,91.0,1012.8,323.4,2.5,4.3,334.2,0.00,2.4,6.1,"23:34:48",1
"18/01/20","23:50",0.0,3.7,91.2,1013.0,326.2,2.0,3.7,340.3,0.00,2.4,6.2,"23:45:04",1
"18/01/20","24:00",0.0,3.8,90.8,1012.8,324.1,2.1,3.6,333.4,0.00,2.5,6.3,"23:54:40",1
